FW7745 Weather Reports


time (UTC)temp
F
wind
direction
speed
knots
gust
knots
rain 1hr
in
rain 24hr
in
rain mn
in
humidity
%
barometer
mb
20260504150756 67 248 3.5 4.3 0.00 0.00 0.00 44 1015.9
20260504150253 68 279 0.9 1.7 0.00 0.00 0.00 43 1016.1
20260504141223 64 271 2.6 4.3 0.00 0.00 0.00 49 1016.4
20260504140720 63 217 0.9 0.9 0.00 0.00 0.00 50 1016.4
20260504140215 62 266 0.0 0.9 0.00 0.00 0.00 51 1016.5
20260504130643 58 232 1.7 1.7 0.00 0.00 0.00 57 1016.9
20260504130140 57 182 6.1 6.1 0.00 0.00 0.00 58 1017.0
20260504120104 54 158 3.5 5.2 0.00 0.00 0.00 60 1017.3
20260504110531 53 204 2.6 4.3 0.00 0.00 0.00 61 1017.4
20260504100453 53 175 2.6 4.3 0.00 0.00 0.00 60 1017.1
20260504081847 54 215 0.9 1.7 0.00 0.00 0.00 56 1017.7
20260504081343 54 219 2.6 2.6 0.00 0.00 0.00 56 1017.7
20260504080838 54 243 0.0 0.9 0.00 0.00 0.00 56 1017.5
20260504080337 54 222 0.0 0.9 0.00 0.00 0.00 56 1017.6
20260504070304 54 198 0.0 0.9 0.00 0.00 0.00 57 1017.4
20260504060224 54 167 1.7 1.7 0.00 0.00 0.00 56 1018.2
20260504050652 54 205 0.9 1.7 0.00 0.00 0.00 56 1018.1
20260504050149 54 192 0.9 1.7 0.00 0.00 0.00 56 1018.0
20260504045646 54 206 0.9 1.7 0.00 0.00 0.00 55 1017.7
20260504045146 54 192 0.9 1.7 0.00 0.00 0.00 55 1017.8
20260504044644 54 185 0.9 1.7 0.00 0.00 0.00 55 1017.7
20260504044141 54 198 1.7 1.7 0.00 0.00 0.00 54 1017.8
20260504043638 54 221 1.7 2.6 0.00 0.00 0.00 54 1018.0
20260504043135 54 213 1.7 1.7 0.00 0.00 0.00 54 1017.8
20260504042632 54 219 2.6 2.6 0.00 0.00 0.00 54 1017.9
20260504042129 53 200 2.6 4.3 0.00 0.00 0.00 53 1017.7
20260504041625 53 195 0.9 0.9 0.00 0.00 0.00 53 1017.7
20260504041121 54 170 0.9 2.6 0.00 0.00 0.00 53 1017.8
20260504040618 54 167 2.6 2.6 0.00 0.00 0.00 52 1018.0
20260504040115 54 190 0.9 1.7 0.00 0.00 0.00 52 1018.0
20260504035612 54 225 1.7 1.7 0.00 0.00 0.00 52 1017.9
20260504035108 54 210 0.9 0.9 0.00 0.00 0.00 52 1017.8
20260504034606 54 229 1.7 1.7 0.00 0.00 0.00 51 1017.7
20260504034103 54 259 0.0 0.0 0.00 0.00 0.00 51 1017.8
20260504033601 54 266 0.0 0.0 0.00 0.00 0.00 50 1017.7
20260504033058 54 221 0.0 0.0 0.00 0.00 0.00 50 1017.6
20260504032555 55 204 0.0 0.9 0.00 0.00 0.00 49 1017.6
20260504032052 55 187 0.9 0.9 0.00 0.00 0.00 48 1017.6
20260504031549 55 193 0.9 0.9 0.00 0.00 0.00 48 1017.5
20260504031045 55 196 0.0 0.0 0.00 0.00 0.00 47 1017.6
20260504030542 55 214 1.7 2.6 0.00 0.00 0.00 46 1017.6
20260504030038 56 188 1.7 1.7 0.00 0.00 0.00 46 1017.5
20260504025535 56 207 2.6 2.6 0.00 0.00 0.00 46 1017.3
20260504025032 56 182 1.7 1.7 0.00 0.00 0.00 46 1017.4
20260504024529 56 196 1.7 1.7 0.00 0.00 0.00 45 1017.5
20260504024026 56 221 1.7 1.7 0.00 0.00 0.00 45 1017.5
20260504023523 56 192 2.6 2.6 0.00 0.00 0.00 45 1017.1
20260504023018 57 197 0.9 0.9 0.00 0.00 0.00 45 1017.4
20260504022514 57 182 2.6 2.6 0.00 0.00 0.00 45 1017.4
20260504022011 57 191 1.7 1.7 0.00 0.00 0.00 44 1017.2
20260504021509 57 199 0.0 0.0 0.00 0.00 0.00 44 1017.2
20260504021005 57 217 0.0 0.0 0.00 0.00 0.00 44 1017.2
20260504020502 57 226 0.0 0.0 0.00 0.00 0.00 43 1017.0
20260504015959 58 208 0.9 0.9 0.00 0.00 0.00 42 1017.2
20260504015455 58 212 1.7 1.7 0.00 0.00 0.00 42 1017.0
20260504014951 58 171 0.9 0.9 0.00 0.00 0.00 42 1017.1
20260504014447 57 192 2.6 2.6 0.00 0.00 0.00 42 1017.0
20260504013944 58 190 0.0 0.0 0.00 0.00 0.00 43 1017.1
20260504013443 59 164 0.9 0.9 0.00 0.00 0.00 42 1017.1
20260504012938 59 164 1.7 1.7 0.00 0.00 0.00 41 1017.0
20260504012437 59 215 1.7 1.7 0.00 0.00 0.00 41 1016.9
20260504011934 59 179 0.9 1.7 0.00 0.00 0.00 41 1017.0
20260504011431 59 206 0.9 1.7 0.00 0.00 0.00 40 1016.8
20260504010926 59 190 1.7 1.7 0.00 0.00 0.00 40 1016.7
20260504010422 59 228 0.0 0.9 0.00 0.00 0.00 39 1016.7
20260504005919 60 212 0.9 1.7 0.00 0.00 0.00 39 1016.9
20260504005415 60 243 0.0 0.0 0.00 0.00 0.00 38 1016.6
20260504004913 60 238 0.0 0.0 0.00 0.00 0.00 37 1016.5
20260504004411 60 167 0.9 1.7 0.00 0.00 0.00 36 1016.6
20260504003908 60 252 0.9 0.9 0.00 0.00 0.00 35 1016.8
20260504003404 60 253 0.9 0.9 0.00 0.00 0.00 35 1016.6
20260504002900 60 237 0.0 0.9 0.00 0.00 0.00 35 1016.6
20260504002358 60 221 1.7 2.6 0.00 0.00 0.00 34 1016.5
20260504001855 61 248 1.7 1.7 0.00 0.00 0.00 34 1016.5
20260504001352 61 296 0.9 0.9 0.00 0.00 0.00 33 1016.3
20260504000849 61 262 1.7 1.7 0.00 0.00 0.00 33 1016.3
20260504000346 61 252 2.6 4.3 0.00 0.00 0.00 33 1016.3
20260503235844 61 242 3.5 4.3 0.00 0.00 0.00 33 1016.4
20260503235341 61 261 1.7 1.7 0.00 0.00 0.00 33 1016.3
20260503234838 61 238 2.6 2.6 0.00 0.00 0.00 33 1016.3
20260503234336 62 226 2.6 4.3 0.00 0.00 0.00 33 1016.0
20260503233834 62 242 1.7 4.3 0.00 0.00 0.00 32 1016.2
20260503233329 62 279 2.6 4.3 0.00 0.00 0.00 32 1015.9
20260503232826 62 7 0.9 0.9 0.00 0.00 0.00 32 1016.2
20260503232324 62 340 4.3 6.1 0.00 0.00 0.00 32 1016.1
20260503231821 62 311 1.7 1.7 0.00 0.00 0.00 32 1015.9
20260503231318 62 315 2.6 2.6 0.00 0.00 0.00 31 1016.0
20260503230814 63 263 0.9 1.7 0.00 0.00 0.00 31 1016.0
20260503230311 63 343 2.6 2.6 0.00 0.00 0.00 32 1015.9
20260503225809 64 225 4.3 7.8 0.00 0.00 0.00 31 1015.9
20260503225304 64 336 0.9 1.7 0.00 0.00 0.00 30 1015.9
20260503224801 64 311 0.9 0.9 0.00 0.00 0.00 30 1016.0
20260503224258 64 321 2.6 5.2 0.00 0.00 0.00 30 1016.1
20260503223756 65 281 2.6 2.6 0.00 0.00 0.00 29 1016.3
20260503223254 65 232 0.0 0.9 0.00 0.00 0.00 29 1016.4
20260503222749 65 309 1.7 2.6 0.00 0.00 0.00 29 1016.2
20260503222247 65 300 1.7 2.6 0.00 0.00 0.00 29 1016.1
20260503221745 65 10 2.6 4.3 0.00 0.00 0.00 29 1016.2
20260503221243 65 356 4.3 7.0 0.00 0.00 0.00 29 1016.4
20260503220740 65 211 0.9 0.9 0.00 0.00 0.00 30 1016.1
20260503220237 64 233 2.6 4.3 0.00 0.00 0.00 30 1016.2
20260503215733 64 251 2.6 2.6 0.00 0.00 0.00 30 1016.3
20260503215230 63 250 3.5 6.1 0.00 0.00 0.00 30 1016.3
20260503214729 64 256 4.3 6.1 0.00 0.00 0.00 30 1016.2
20260503214225 64 358 5.2 7.8 0.00 0.00 0.00 30 1016.4
20260503213723 64 242 4.3 6.1 0.00 0.00 0.00 30 1016.3
20260503213220 65 324 1.7 1.7 0.00 0.00 0.00 29 1016.5
20260503212716 64 190 2.6 5.2 0.00 0.00 0.00 29 1016.3
20260503212214 65 305 0.9 1.7 0.00 0.00 0.00 30 1016.3
20260503211711 65 350 1.7 1.7 0.00 0.00 0.00 30 1016.4
20260503211208 63 332 0.9 1.7 0.00 0.00 0.00 31 1016.0
20260503210704 63 312 4.3 7.0 0.00 0.00 0.00 31 1016.5
20260503210201 64 225 2.6 5.2 0.00 0.00 0.00 30 1016.7
20260503205656 65 325 4.3 5.2 0.00 0.00 0.00 31 1016.5
20260503205152 64 239 5.2 7.0 0.00 0.00 0.00 30 1016.4
20260503204649 64 319 1.7 2.6 0.00 0.00 0.00 31 1016.3
20260503204147 64 291 3.5 5.2 0.00 0.00 0.00 30 1016.2
20260503203644 64 321 1.7 2.6 0.00 0.00 0.00 30 1016.5
20260503203141 65 296 3.5 7.0 0.00 0.00 0.00 31 1016.5
20260503202638 64 308 2.6 4.3 0.00 0.00 0.00 32 1016.4
20260503202137 61 228 1.7 1.7 0.00 0.00 0.00 33 1016.6
20260503201634 64 279 7.0 8.7 0.00 0.00 0.00 31 1016.8
20260503201131 66 221 5.2 7.0 0.00 0.00 0.00 29 1016.7
20260503200628 65 332 1.7 1.7 0.00 0.00 0.00 30 1017.0
20260503200124 65 230 2.6 4.3 0.00 0.00 0.00 31 1016.9
20260503195621 64 348 2.6 2.6 0.00 0.00 0.00 32 1017.0
20260503195118 64 291 1.7 2.6 0.00 0.00 0.00 33 1016.9
20260503194615 64 309 3.5 4.3 0.00 0.00 0.00 32 1017.3
20260503194110 63 287 5.2 6.1 0.00 0.00 0.00 33 1017.4
20260503193607 63 234 2.6 4.3 0.00 0.00 0.00 33 1017.3
20260503193102 63 268 4.3 12.2 0.00 0.00 0.00 34 1017.5
20260503192558 62 70 2.6 4.3 0.00 0.00 0.00 34 1017.5
20260503192054 63 308 1.7 1.7 0.00 0.00 0.00 33 1017.5
20260503191551 63 16 3.5 5.2 0.00 0.00 0.00 34 1017.9
20260503191048 62 1 4.3 6.1 0.00 0.00 0.00 34 1017.7
20260503190545 63 71 1.7 4.3 0.00 0.00 0.00 34 1017.7
20260503190042 61 327 2.6 2.6 0.00 0.00 0.00 35 1017.8
20260503185539 61 35 4.3 6.1 0.00 0.00 0.00 35 1017.8
20260503185038 62 240 3.5 4.3 0.00 0.00 0.00 35 1018.1
20260503184535 60 356 2.6 2.6 0.00 0.00 0.00 36 1018.1
20260503184031 62 323 2.6 4.3 0.00 0.00 0.00 35 1017.9
20260503183528 61 301 4.3 6.1 0.00 0.00 0.00 34 1018.2
20260503183025 61 44 4.3 7.0 0.00 0.00 0.00 34 1018.2
20260503182524 61 339 2.6 2.6 0.00 0.00 0.00 35 1018.2
20260503182021 62 257 4.3 5.2 0.00 0.00 0.00 34 1018.2
20260503181518 60 273 7.8 8.7 0.00 0.00 0.00 35 1018.0
20260503181014 60 339 1.7 1.7 0.00 0.00 0.00 35 1018.1
20260503180512 61 44 3.5 4.3 0.00 0.00 0.00 34 1018.5
20260503180009 60 10 2.6 4.3 0.00 0.00 0.00 35 1018.3
20260503175506 60 326 3.5 7.0 0.00 0.00 0.00 36 1018.4
20260503175003 61 330 3.5 5.2 0.00 0.00 0.00 35 1018.5
20260503174500 60 280 0.9 1.7 0.00 0.00 0.00 36 1018.3
20260503173955 59 13 2.6 2.6 0.00 0.00 0.00 37 1018.5
20260503173451 60 271 3.5 6.1 0.00 0.00 0.00 35 1018.5
20260503172949 59 343 7.0 11.3 0.00 0.00 0.00 35 1018.6
20260503172446 59 291 1.7 2.6 0.00 0.00 0.00 35 1019.0
20260503171942 59 321 2.6 4.3 0.00 0.00 0.00 34 1018.7
20260503171439 59 227 3.5 5.2 0.00 0.00 0.00 35 1018.7
20260503170937 59 270 1.7 1.7 0.00 0.00 0.00 36 1018.7
20260503170432 59 275 2.6 4.3 0.00 0.00 0.00 36 1018.6